DECAYED

STARLINK-4785, 53865 (Decayed)

Orbit data source: Space-Track

STARLINK-4785, 53865 was a payload satellite owned by SpaceX/Seattle (US) in LEO that was launched on Mon, 19 Sep 2022 UTC via an FALCON 9 launch vehicle from the Air Force Eastern Test Range (AFETR). Payload-class satellites include a variety of spacecraft equipped with specific instruments for various scientific and technological missions. These include communications satellites like Starlink; space stations such as the ISS; scientific satellites like the Hubble; Earth observation satellites from companies like Planet Labs, Umbra, and HawkEye 360; GPS; miniature CubeSats for education and research; and military/defense satellites.

Not visible in the next 10 days
Identifier
53865, 2022-114AZ
Orbit
Decayed
Country
Flag of USUS
Related business
Manufacturer
SpaceX/Seattle
Mission
Decayed Commercial Communications
Bus & Motor
STARLINK, Unknown motor
Mass
305 kg wet, ~290 kg dry
Launch date (UTC)
2022-09-19 (4 years ago)
Launch vehicle
FALCON 9
Launch site
Air Force Eastern Test Range (AFETR)
Object type
Payload
Rocket body
Debris
Shape & HBR
Box + 1 Pan, 10.1 m
Radar Cross Section
13.562 m², Large (>1 m²)

Expand to show TLE details & history
Last TLE update: 1 year ago

TLE from 1 year ago
0 STARLINK-4785
1 53865U 22114AZ  24365.05073191  .71503711  12472-4  23421-2 0  9992
2 53865  53.1890  53.0715 0003252 100.5684 332.0902 16.44731565127250
Epoch: 2024-12-30T01:13Z
TLE epoch observation values (Epoch: 2024-12-30T01:13:03.237Z)
Latitude
49.98719°
Longitude
-1.75105°
Altitude
157.142 km
Speed
7.819 km/s
True Right ascension
07h 41m 57s
True Declination
49° 48' 08"
Sunlit
Object was in full shadow at epoch
Visualization orbit readout
Latitude
Unknown
Longitude
Unknown
Altitude
Unknown
Speed
Unknown
Apparent Right ascension
Unknown
Apparent Declination
Unknown
Sunlit
N/A
Visualization observer readout
Local Sidereal Time
21:27:28
Azimuth
Unknown
Elevation
Unknown
Doppler factor
Unknown
Orbital elements
Apogee altitude
155.634 km
Perigee altitude
151.386 km
Semi-major axis
6,531.647 km
Eccentricity
0.00033
Inclination
53.189°
RAAN
53.0715°
Arg. of periapsis
100.5684°
True anomaly
332.07275°
Mean anomaly
332.0902°
Eccentric anomaly
332.08148°
Mean motion
4.11158 °/min
Orbital period
87.56 mins
BSTAR
0.0023421
Loading maneuver chart data...
Computing Atmospheric mass density...
Loading historical data...
Loading historical data...
Loading historical data...
Loading historical data...
Loading historical data...
Loading historical data...
Loading historical data...

Documentation

Showing up to 5 results
|